Theta_e
311 310 309 309 311 312 312 314 315 316 316 317 318 319 319 319 320 321 319 326 326 327 327 327 325 322 313 303 302 315 326 329 319 309 308 307 306 304 303 303 302 299 299 299 299 298 299
311 310 310 309 309 310 311 313 314 315 316 317 318 318 318 319 320 321 318 325 325 326 326 326 324 321 311 300 314 319 321 316 315 309 309 309 306 306 301 300 303 301 300 299 299 297 298
310 309 308 308 308 309 311 312 314 315 316 316 317 317 318 319 320 320 317 325 325 326 326 326 324 317 310 307 314 317 320 315 314 310 309 310 311 309 304 299 304 297 296 297 296 297 296
309 307 307 309 310 310 311 312 313 313 314 315 316 315 317 318 320 320 318 323 324 324 325 325 323 316 306 312 314 316 317 315 315 313 311 313 313 306 306 307 304 297 294 290 295 295 295
308 307 308 309 309 310 310 311 311 311 312 313 314 315 314 318 319 318 319 323 323 324 325 325 316 310 300 315 309 316 314 311 313 311 313 312 310 304 304 300 297 297 290 289 291 294 293
308 307 308 308 309 309 309 309 309 310 311 312 313 315 313 318 318 318 321 322 322 323 322 320 314 304 301 303 312 315 314 315 310 308 306 305 302 298 299 299 291 291 292 289 288 292 291
307 307 307 306 308 308 308 308 308 308 309 311 312 313 313 317 318 320 320 317 309 307 312 304 302 299 299 307 315 311 314 312 311 307 297 299 296 295 297 300 299 298 295 294 290 292 290
307 307 306 305 304 305 306 306 307 307 308 309 310 312 313 312 318 320 318 309 309 309 301 306 305 299 304 311 305 310 314 304 303 297 297 294 292 298 301 301 296 298 295 292 293 291 290
305 306 305 303 303 303 305 305 305 305 307 309 309 311 311 313 317 317 312 310 315 309 297 299 301 300 303 307 303 305 310 306 300 297 296 292 294 298 299 297 297 293 295 294 294 289 290
305 306 304 302 302 303 304 303 303 304 306 308 309 311 310 309 312 313 309 315 314 310 290 291 295 299 299 303 298 307 309 304 300 297 297 296 298 295 294 294 297 291 295 291 289 288 287
305 305 303 302 301 302 302 302 303 303 306 307 308 310 310 310 312 308 312 314 312 307 280 291 294 303 299 299 299 300 303 301 297 295 295 292 292 293 291 293 295 292 295 292 289 286 282
306 304 303 302 301 301 301 301 301 303 305 307 308 309 309 308 313 314 314 313 307 289 278 286 293 292 293 294 294 296 298 300 301 295 295 292 294 295 293 293 297 293 292 290 289 286 281
305 304 303 302 302 301 300 301 301 302 304 306 307 308 307 308 306 315 311 305 288 283 287 284 286 291 291 289 292 295 292 292 291 288 288 291 291 293 291 288 293 293 289 281 280 278 278
304 304 303 303 303 302 301 301 300 302 304 305 306 307 307 307 313 312 307 295 283 283 285 289 290 290 287 290 290 292 291 289 288 289 289 286 284 290 292 289 287 290 289 282 276 276 277
304 304 303 303 303 303 302 300 300 301 303 304 305 304 303 305 310 311 299 285 283 286 285 287 289 286 284 286 289 290 288 290 289 289 286 287 287 291 291 293 292 287 285 287 281 271 274
301 300 304 304 303 303 303 300 301 301 302 303 299 300 300 306 313 306 293 285 283 287 289 290 284 286 283 283 283 286 286 288 288 290 289 287 281 288 291 293 292 288 292 284 284 275 271
302 300 303 304 304 303 302 300 301 302 302 302 297 289 297 304 311 299 286 286 286 290 293 288 283 281 284 283 283 284 285 286 289 289 287 287 284 281 286 287 286 287 286 287 286 281 275
301 303 304 304 303 303 302 301 302 302 301 298 291 284 300 309 295 295 290 287 292 290 288 287 286 284 286 286 282 283 284 286 292 292 285 287 283 279 283 285 291 289 287 288 284 279 279
301 303 303 302 302 303 302 301 302 302 300 294 285 285 297 297 285 289 292 289 290 288 286 286 285 286 288 286 283 284 285 290 292 292 289 287 282 275 281 284 284 286 286 289 287 285 282
300 301 302 303 303 302 302 302 301 302 300 294 286 283 286 287 293 292 289 287 286 290 288 287 285 289 286 285 284 283 284 287 291 292 295 293 284 281 279 281 284 283 286 288 288 283 282
300 300 300 301 302 302 302 301 301 301 300 294 286 283 283 283 287 291 292 289 286 284 288 288 284 287 285 282 281 281 284 285 288 293 290 289 280 281 282 283 284 285 285 285 285 287 283
298 300 300 300 300 302 303 302 301 301 299 290 284 284 285 284 289 291 291 288 286 286 287 285 285 287 285 283 285 282 285 284 285 287 287 286 278 281 278 282 283 282 286 287 287 287 287
298 299 299 300 300 300 301 302 301 300 296 288 289 288 286 285 289 289 288 288 287 289 289 288 287 286 284 286 289 290 291 291 290 290 288 285 281 277 271 279 280 275 283 285 287 289 288
299 298 298 299 299 299 300 302 301 301 295 290 289 289 285 281 284 290 289 288 288 286 287 287 289 287 288 294 294 291 289 288 289 286 289 286 280 276 271 274 272 283 284 287 287 288 291
298 298 298 299 298 299 299 301 301 300 299 291 290 288 285 280 282 288 289 288 289 288 286 287 287 289 292 291 284 278 277 279 278 282 284 286 283 275 274 268 279 283 283 283 282 284 288
297 297 298 299 298 298 299 300 301 300 299 292 291 292 287 283 280 283 289 290 288 284 285 285 289 289 291 286 282 272 272 274 274 276 282 285 287 281 267 271 272 280 286 287 287 282 289
296 297 299 299 299 298 298 299 300 301 299 293 290 292 288 282 284 283 285 288 291 286 284 286 286 286 287 282 274 271 271 276 275 275 275 274 276 281 270 275 276 284 285 287 279 282 283
297 298 299 299 298 298 298 299 300 300 300 293 290 292 288 282 284 284 284 285 288 288 287 286 288 286 283 282 283 278 270 277 274 276 279 279 277 273 270 269 276 285 284 285 287 285 286
296 297 298 298 299 298 298 299 300 299 299 295 288 292 292 286 285 287 285 286 286 287 288 286 286 285 286 286 281 279 276 275 274 273 279 279 282 280 283 281 286 284 284 284 285 285 284
Wind_Speed
18 17 16 17 19 18 17 18 19 18 17 14 11 22 25 25 26 27 20 30 26 26 26 25 24 23 9 5 7 3 11 12 8 7 10 7 6 5 8 6 3 4 5 4 1 5 4
19 20 17 17 19 19 16 17 18 17 17 14 13 14 20 26 26 26 23 30 28 28 28 27 27 24 9 13 3 5 10 7 6 5 6 6 8 4 6 5 6 4 1 2 4 5 4
18 17 17 19 20 19 16 17 16 16 16 14 13 15 15 19 23 26 22 32 29 29 29 28 28 15 11 10 6 8 9 5 4 4 6 2 5 4 3 6 2 3 4 6 1 1 4
18 15 18 17 18 17 15 14 12 12 13 14 14 11 16 19 24 24 21 32 30 30 30 29 29 7 5 6 7 9 8 4 5 4 5 7 8 8 2 1 3 5 5 3 2 1 2
17 17 13 13 13 14 13 11 8 8 8 10 13 15 11 21 24 22 29 32 29 30 30 29 16 6 6 9 7 5 6 10 5 6 6 5 6 4 2 6 4 4 4 4 5 5 1
18 14 13 11 10 10 9 7 4 4 6 10 12 11 13 18 23 24 34 30 28 28 24 15 5 4 1 10 8 8 3 13 6 14 6 5 4 3 2 7 9 6 7 5 5 4 3
18 13 12 8 9 7 6 5 4 4 6 8 11 14 11 22 22 24 28 17 17 16 24 8 12 5 14 8 6 4 11 10 4 4 6 4 4 12 11 13 1 11 6 10 2 1 2
21 15 11 8 7 6 7 5 6 6 9 10 12 12 15 19 26 33 22 17 27 20 30 6 13 5 4 14 12 11 16 10 9 11 7 4 6 5 10 7 6 10 11 7 3 0 3
19 17 12 8 6 7 8 8 6 7 10 10 13 10 11 22 23 19 21 24 18 17 9 6 6 8 13 10 13 16 19 8 15 10 11 6 3 12 10 10 10 3 15 7 4 0 0
16 16 12 8 7 5 6 6 6 9 9 9 11 7 11 26 22 21 20 24 20 9 7 5 6 3 5 11 7 5 8 7 5 13 11 2 5 12 12 7 11 8 4 4 5 1 4
14 15 13 9 7 6 5 5 6 9 8 8 9 9 9 21 14 18 24 20 19 3 15 14 8 4 7 8 19 9 2 3 14 9 8 4 8 14 11 7 9 2 10 5 2 4 3
16 16 14 11 8 6 4 4 5 7 10 7 9 7 6 12 3 17 20 20 7 7 7 9 8 11 8 2 4 7 5 6 4 7 5 2 2 7 9 7 15 11 9 11 6 5 7
15 16 15 13 10 7 4 2 4 7 8 8 9 9 4 2 9 18 18 18 12 10 11 11 12 19 16 8 7 15 11 9 7 10 8 4 1 2 2 9 4 13 11 3 3 3 10
19 15 16 15 12 9 5 3 5 5 5 7 9 9 4 7 9 23 13 13 11 8 8 7 20 22 11 16 4 9 13 11 5 6 8 9 7 8 6 7 9 12 5 6 6 5 5
17 12 17 16 13 10 7 3 2 4 6 9 8 3 3 7 14 18 19 13 7 13 10 17 22 20 8 6 10 10 13 16 10 9 9 8 6 2 2 4 8 7 8 7 5 1 1
10 10 16 16 13 10 6 3 5 4 2 5 3 2 3 6 17 15 12 7 5 7 16 28 16 8 18 16 10 14 19 7 7 5 1 7 6 5 4 3 5 5 8 5 2 4 5
11 10 9 15 12 8 7 1 6 7 3 6 1 2 4 8 13 14 8 5 7 7 29 14 8 10 11 16 7 13 18 1 7 8 4 6 5 2 8 10 13 4 6 3 2 4 4
5 9 10 13 9 10 8 3 5 8 6 5 2 2 4 12 9 10 12 11 8 19 2 7 7 7 20 20 7 9 16 8 15 17 10 6 6 5 10 3 11 4 7 10 6 5 2
5 10 12 9 8 9 8 5 4 7 6 2 1 2 5 9 7 16 11 9 6 14 7 6 7 5 11 16 7 4 7 5 16 21 19 9 3 5 3 2 3 13 7 14 3 4 7
8 9 10 13 12 7 6 6 6 8 8 3 1 2 2 2 2 21 20 13 10 4 5 7 10 15 11 13 5 10 7 3 12 12 9 8 6 8 11 7 9 9 16 14 15 5 8
9 8 9 11 11 7 5 5 4 6 5 2 2 0 0 2 7 16 17 15 24 9 3 8 4 16 13 8 3 5 5 5 5 9 4 5 6 4 2 4 6 9 17 17 23 29 14
3 10 8 9 9 10 8 3 4 5 6 3 3 1 1 4 6 19 13 17 30 7 8 7 15 19 7 11 10 10 11 6 9 5 9 2 2 4 2 1 7 7 17 25 27 21 22
8 7 7 8 8 7 8 6 7 9 4 2 2 1 2 4 10 17 11 23 20 15 7 8 18 11 6 10 12 13 9 10 16 19 19 10 8 5 6 1 5 5 20 18 19 21 25
7 6 4 5 7 6 8 6 6 9 4 2 1 1 1 4 4 18 15 8 17 4 9 5 10 8 4 16 16 13 10 10 9 4 6 14 7 4 4 3 6 8 4 16 22 18 26
5 6 4 6 4 6 6 7 8 10 7 4 0 2 1 2 6 3 16 11 13 7 7 6 2 2 6 9 8 7 6 6 5 5 4 2 7 3 7 5 7 12 7 8 11 18 18
6 4 4 7 4 5 5 7 7 8 6 4 2 1 1 2 5 6 9 19 11 7 5 4 3 2 4 5 5 7 6 6 4 3 3 4 7 6 4 9 13 2 9 7 7 20 12
4 7 8 10 8 5 5 7 8 9 10 4 2 4 1 3 3 5 2 14 7 6 7 5 5 3 1 4 5 4 4 3 8 10 7 4 1 15 4 7 8 6 5 4 9 6 2
7 7 10 11 10 7 6 7 8 9 8 3 2 4 1 3 5 8 6 4 3 3 8 6 6 3 3 5 4 4 4 7 5 4 10 9 8 5 3 1 15 7 3 17 6 2 2
8 9 11 11 11 9 8 8 8 8 9 4 4 3 4 5 2 1 3 4 5 3 5 3 2 6 6 7 2 5 3 3 6 4 2 3 8 8 12 8 2 4 3 1 2 3 3
Wind_Direction
222 232 232 244 247 241 245 249 247 255 253 245 243 218 208 213 217 221 249 195 186 177 174 167 157 150 143 187 238 283 169 155 137 152 164 160 152 147 175 158 150 145 192 143 10 320 256
222 231 238 245 247 244 249 249 242 246 248 242 233 227 221 215 212 215 231 192 187 176 174 168 157 151 146 198 202 130 116 112 141 142 164 162 171 175 140 162 175 157 140 331 10 330 298
225 233 245 251 246 244 246 244 235 243 251 250 246 232 220 218 212 208 223 192 186 173 170 162 156 162 169 175 153 136 124 134 144 139 129 141 162 107 124 111 261 117 83 1 337 297 275
223 237 240 248 249 245 234 231 230 239 249 258 255 236 234 222 213 209 226 186 182 172 171 161 159 177 167 138 127 128 119 88 44 70 101 107 94 92 52 168 41 91 74 74 306 157 240
220 230 243 240 231 227 215 211 217 229 249 262 258 247 284 222 211 208 221 173 174 168 165 154 160 209 155 143 135 146 138 136 104 93 87 82 59 90 43 119 84 42 124 205 291 176 194
214 220 211 198 181 173 181 189 194 256 257 270 264 261 333 244 207 213 186 163 169 163 155 152 122 131 255 187 132 131 119 138 108 108 72 64 71 107 130 175 184 155 178 224 193 171 176
208 200 196 172 153 168 184 213 215 245 267 283 286 281 266 234 202 201 153 156 166 172 176 174 161 119 126 142 103 125 146 124 108 96 141 144 175 198 180 189 292 149 171 228 170 356 151
218 188 186 178 172 195 210 228 255 268 283 287 293 282 266 296 199 184 166 173 176 165 164 154 136 88 149 137 127 139 153 149 158 155 117 117 228 158 140 167 124 190 183 205 262 60 175
191 182 178 189 191 219 220 235 254 261 268 292 296 285 281 292 191 183 169 172 162 135 115 129 121 154 164 136 134 154 169 134 171 167 181 165 163 147 152 171 192 151 203 184 192 190 184
188 179 172 198 202 209 216 237 255 266 270 284 297 300 300 308 195 167 175 170 158 161 119 160 135 188 163 123 91 124 158 134 169 179 170 247 130 152 150 185 189 198 191 131 114 305 229
221 178 166 185 198 213 215 240 261 280 282 281 310 276 279 292 149 166 159 165 157 91 177 147 147 107 255 166 136 175 183 74 150 139 142 173 165 162 172 164 159 244 160 152 68 179 313
218 179 168 175 187 192 201 235 284 293 294 317 314 313 319 292 100 153 153 156 127 148 156 141 130 170 146 109 84 114 140 65 105 111 64 99 333 175 171 160 165 131 70 38 356 58 268
234 174 171 183 190 199 223 258 320 318 296 323 328 323 201 287 181 161 159 154 166 189 147 144 159 167 148 141 105 156 157 156 156 142 160 111 143 325 164 98 160 126 136 123 145 198 236
207 196 179 190 195 192 217 269 343 334 310 325 323 302 195 226 269 143 159 152 183 123 154 141 154 150 137 138 88 150 152 177 242 113 146 163 182 188 170 158 165 164 152 143 174 207 264
197 216 189 194 200 197 204 231 349 0 341 334 312 210 215 215 235 152 157 195 140 154 144 136 141 144 127 139 134 147 186 197 182 186 137 153 198 15 148 119 147 163 212 148 124 77 19
164 290 195 193 197 197 183 215 307 5 339 312 238 198 219 266 174 155 158 126 121 139 129 147 138 149 164 162 135 165 174 189 176 177 132 189 115 184 205 130 20 146 141 190 79 198 251
152 219 223 190 193 172 155 258 331 25 9 341 348 72 249 241 166 167 172 116 125 165 143 148 135 126 168 154 136 166 172 226 142 169 79 146 100 20 128 211 166 134 155 92 44 204 184
38 167 146 153 155 156 144 96 16 19 17 51 78 231 340 180 169 172 170 140 140 155 82 106 91 92 161 164 123 149 187 179 163 154 147 195 117 141 196 300 176 194 181 171 182 197 251
72 92 106 125 160 149 131 101 62 44 63 128 116 319 323 323 166 166 132 121 136 154 154 141 123 145 145 157 128 144 162 199 158 166 171 177 143 96 84 349 3 202 188 203 151 73 214
106 100 96 95 107 126 131 95 50 64 62 80 132 307 305 355 107 165 145 151 141 188 96 81 106 114 120 160 31 170 147 114 163 174 170 142 171 165 181 183 140 189 185 190 199 202 205
127 131 101 95 87 68 114 92 72 54 78 103 54 59 84 223 184 167 160 156 153 158 135 135 76 162 145 134 104 110 113 86 84 151 177 188 177 132 89 138 142 170 178 177 199 220 199
117 145 123 104 89 78 84 56 43 24 110 71 108 169 239 267 193 155 156 181 168 138 146 169 145 159 131 144 164 156 128 129 168 175 174 210 201 110 163 302 187 179 193 192 207 215 236
145 137 152 126 107 89 66 75 67 46 90 98 140 170 103 293 188 160 178 169 172 134 13 113 136 125 107 158 148 158 167 155 157 168 187 173 139 113 233 171 114 309 209 197 208 206 219
138 134 132 157 119 89 70 55 46 48 101 127 180 104 91 297 294 180 149 131 147 144 113 53 125 106 142 109 89 58 54 63 130 85 188 185 127 101 162 55 204 249 176 197 204 211 224
161 159 168 172 131 93 66 47 57 65 82 90 50 93 41 356 310 121 146 124 101 72 71 93 53 82 151 86 83 68 353 41 339 26 23 70 138 116 145 191 288 262 177 146 163 245 227
157 177 170 158 151 92 68 57 64 57 66 97 101 106 19 93 357 300 169 159 141 110 86 79 25 62 88 111 108 144 174 161 221 350 3 75 181 144 123 172 222 139 174 148 108 273 189
151 188 167 153 134 98 60 57 44 59 58 79 81 49 10 105 13 329 40 167 135 110 96 132 145 66 62 109 94 142 197 172 164 146 157 91 78 210 188 226 284 247 95 119 156 251 292
93 150 147 146 126 101 66 50 56 60 34 66 67 26 52 78 15 355 3 48 37 142 146 163 106 341 33 84 127 171 125 207 101 183 161 145 152 190 66 132 256 163 56 181 195 120 67
64 145 146 135 113 91 67 52 78 54 37 58 52 18 6 68 87 348 65 34 14 3 108 40 84 150 173 105 115 118 118 138 147 207 324 161 178 175 183 202 227 192 99 96 44 67 43